(9612) Belgorod = 1994 BN = 1987 WR2 = 1992 RT7

Discovered at Nauchnyj on 1992-09-04 by L. V. Zhuravleva.
(9612) Belgorod = 1992 RT7

An industrial, scientific and cultural center in southern Russia, close to the Ukrainian border, Belgorod was mentioned in a chronicle in 1237. A fortress established in 1593 made Belgorod a key stronghold in protecting Russia's southern border against the Tatars in the seventeenth century. [Ref: Minor Planet Circ. 41029]

Orbit

Orbit type: Main Belt

Note: WebGL enabled browser required.

epoch2023-09-13.0
epoch JD2460200.5
perihelion date2021-03-06.55015
perihelion JD2459280.05015
argument of perihelion (°)102.89824
ascending node (°)308.34646
inclination (°)7.53619
eccentricity0.2153394
perihelion distance (AU)2.4754221
Tisserand w.r.t. Jupiter3.2
ΔV w.r.t. Earth (km/sec)10.2
semimajor axis (AU)3.1547680
mean anomaly (°)161.90223
mean daily motion (°/day)0.17589470
aphelion distance (AU)3.834
period (years)5.6
P-vector [x]0.61939217
P-vector [y]0.65983108
P-vector [z]0.42541308
Q-vector [x]-0.77831440
Q-vector [y]0.58708254
Q-vector [z]0.22262252
absolute magnitude13.3
phase slope0.15
uncertainty0
referenceMPEC 2024-A26
observations used2447
oppositions23
arc length (days)12963
first opposition used1987
last opposition used2023
residual rms (arc-secs)0.62
perturbers coarse indicatorM-v
perturbers precise indicator003Ek
first observation date used1987-11-26.0
last observation date used2023-05-24.0
computer nameMPCLINUX
JD of orbit computation2456966.873230
perihelion JD uncertainty (days)8.0342E-05
argument of perihelion uncertainty (°)3.0506E-05
ascending node uncertainty (°)2.6661E-05
inclination uncertainty (°)4.7191E-06
eccentricity uncertainty 2.9439E-08
perihelion distance uncertainty (AU)9.7875E-08
Minimum Orbit Intersection Distances (in AU)
for orbit epoch: 2460200.5, reference: E2024-A26
Mercury2.16404
Venus1.76481
Earth1.4988
Mars0.99342
Jupiter1.64601
Saturn6.09814
Uranus14.9186
Neptune26.8508

Observations

2491 total observations over interval: 1987 11 26.11493 – 2023 05 24.316588
These data are available for download (format description).

Date (UT) J2000 RA J2000 Dec Magn Location Ref
1987 11 26.11493 06 30 35.42 +31 41 25.6 17.6   033 – Karl Schwarzschild Observatory, Tautenburg MPC 12755
1987 11 26.14062 06 30 34.42 +31 41 25.1   033 – Karl Schwarzschild Observatory, Tautenburg MPC 12755
1989 03 07.41510 11 44 46.70 -06 22 52.3 18.5   675 – Palomar Mountain MPC 28171
1989 03 07.44514 11 44 45.24 -06 22 47.4   675 – Palomar Mountain MPC 28172
1992 09 04.97973 00 41 15.94 +14 25 54.4 15.8   095 – Crimea-Nauchnyi MPC 27596
1992 09 28.87701 00 24 39.45 +14 11 24.1 16.0   095 – Crimea-Nauchnyi MPC 27596
1992 09 28.88397 00 24 39.10 +14 11 24.4 16.0   095 – Crimea-Nauchnyi MPC 27596
1992 10 20.80757 00 08 03.34 +12 49 24.9 15.8   095 – Crimea-Nauchnyi MPC 27596
1994 01 16.94653 09 34 51.85 +13 50 14.6   098 – Asiago Observatory, Cima Ekar MPC 23008
1994 01 16.96076 09 34 51.08 +13 50 15.7   098 – Asiago Observatory, Cima Ekar MPC 23008
1994 01 18.94849 09 33 20.48 +13 52 47.6 17.0 R 098 – Asiago Observatory, Cima Ekar MPC 23008
1994 01 18.97349 09 33 19.19 +13 52 50.1   098 – Asiago Observatory, Cima Ekar MPC 23008
1994 02 12.32326 09 12 05.86 +14 34 48.1   675 – Palomar Mountain MPC 30357
1994 02 12.36094 09 12 03.80 +14 34 51.5   675 – Palomar Mountain MPC 30357
1997 07 09.39464 21 11 01.29 -17 05 19.4 17.0 V 689 – U.S. Naval Observatory, Flagstaff MPC 30365
1998 08 31.41235 04 28 25.96 +29 54 51.7 18.5   704 – Lincoln Laboratory ETS, New Mexico MPS 1929
1998 08 31.42166 04 28 26.65 +29 54 53.0 17.9   704 – Lincoln Laboratory ETS, New Mexico MPS 1929
1998 08 31.43145 04 28 27.35 +29 54 56.2 17.9   704 – Lincoln Laboratory ETS, New Mexico MPS 1929
1998 08 31.44138 04 28 28.06 +29 54 59.9 18.1   704 – Lincoln Laboratory ETS, New Mexico MPS 1929
1998 09 29.37155 04 58 05.59 +31 58 47.8 18.1   704 – Lincoln Laboratory ETS, New Mexico MPS 2525
1998 09 29.38387 04 58 06.13 +31 58 51.7 18.1   704 – Lincoln Laboratory ETS, New Mexico MPS 2525
1998 09 29.39615 04 58 06.72 +31 58 55.9 18.1   704 – Lincoln Laboratory ETS, New Mexico MPS 2525
1998 09 29.40843 04 58 07.16 +31 58 56.1 18.6   704 – Lincoln Laboratory ETS, New Mexico MPS 2525
1998 09 29.42071 04 58 07.74 +31 58 59.5 18.2   704 – Lincoln Laboratory ETS, New Mexico MPS 2525
1998 11 14.30965 04 56 52.24 +33 27 36.8 17.8   704 – Lincoln Laboratory ETS, New Mexico MPS 3288
1998 11 14.33164 04 56 51.18 +33 27 35.0 18.2   704 – Lincoln Laboratory ETS, New Mexico MPS 3288
1998 11 14.35375 04 56 49.97 +33 27 33.0 18.8   704 – Lincoln Laboratory ETS, New Mexico MPS 3288
1998 11 14.37556 04 56 49.24 +33 27 31.1 18.8   704 – Lincoln Laboratory ETS, New Mexico MPS 3288
1998 11 14.39783 04 56 48.13 +33 27 31.2 19.0   704 – Lincoln Laboratory ETS, New Mexico MPS 3288
1998 11 16.30179 04 55 21.15 +33 26 09.9 16.9   704 – Lincoln Laboratory ETS, New Mexico MPS 3288
1998 11 16.32308 04 55 20.03 +33 26 10.3 18.4   704 – Lincoln Laboratory ETS, New Mexico MPS 3288
1998 11 16.34428 04 55 19.09 +33 26 06.0 17.9   704 – Lincoln Laboratory ETS, New Mexico MPS 3288
1998 11 16.36532 04 55 17.87 +33 26 06.7 17.1   704 – Lincoln Laboratory ETS, New Mexico MPS 3288
1998 11 16.38638 04 55 16.93 +33 26 05.5 17.1   704 – Lincoln Laboratory ETS, New Mexico MPS 3288
1998 11 17.97193 04 54 00.73 +33 24 26.9 16.9 V 610 – Pianoro MPS 3556
1998 11 17.98304 04 54 00.14 +33 24 26.1   610 – Pianoro MPS 3556
1998 11 17.99454 04 53 59.53 +33 24 25.1   610 – Pianoro MPS 3556
1998 11 18.00358 04 53 59.05 +33 24 24.4   610 – Pianoro MPS 3556
1998 11 18.01260 04 53 58.57 +33 24 23.7   610 – Pianoro MPS 3556
1998 12 13.10527 04 30 44.02 +32 05 58.8   716 – Palmer Divide Observatory, Colorado Springs MPS 3556
1998 12 13.15841 04 30 41.01 +32 05 43.9   716 – Palmer Divide Observatory, Colorado Springs MPS 3556
1998 12 14.19308 04 29 46.69 +32 00 41.7   716 – Palmer Divide Observatory, Colorado Springs MPS 3556
1998 12 14.24281 04 29 44.06 +32 00 27.1 18.1   704 – Lincoln Laboratory ETS, New Mexico MPS 3556
1998 12 14.25132 04 29 43.51 +32 00 25.1   716 – Palmer Divide Observatory, Colorado Springs MPS 3556
1998 12 14.26474 04 29 42.80 +32 00 20.6 18.1   704 – Lincoln Laboratory ETS, New Mexico MPS 3556
1998 12 14.28685 04 29 41.59 +32 00 13.9 18.1   704 – Lincoln Laboratory ETS, New Mexico MPS 3556
1998 12 14.30888 04 29 40.45 +32 00 06.6 18.1   704 – Lincoln Laboratory ETS, New Mexico MPS 3556
1998 12 17.08262 04 27 21.21 +31 46 08.8   704 – Lincoln Laboratory ETS, New Mexico MPS 3556
1998 12 17.10589 04 27 19.96 +31 46 04.5   704 – Lincoln Laboratory ETS, New Mexico MPS 3556
1998 12 17.12981 04 27 18.78 +31 45 55.1   704 – Lincoln Laboratory ETS, New Mexico MPS 3556
1998 12 17.15277 04 27 17.63 +31 45 47.9   704 – Lincoln Laboratory ETS, New Mexico MPS 3556
1998 12 17.17571 04 27 16.47 +31 45 41.3 17.8   704 – Lincoln Laboratory ETS, New Mexico MPS 3556
1998 12 17.84932 04 26 43.99 +31 42 10.7   127 – Bornheim MPS 3556
1998 12 17.85558 04 26 43.67 +31 42 08.8   127 – Bornheim MPS 3556
1999 01 08.24233 04 15 42.94 +29 47 00.0 17.6   704 – Lincoln Laboratory ETS, New Mexico MPS 3763
1999 01 08.26862 04 15 42.70 +29 46 51.1 17.6   704 – Lincoln Laboratory ETS, New Mexico MPS 3763
1999 01 08.28291 04 15 42.53 +29 46 46.6 17.6   704 – Lincoln Laboratory ETS, New Mexico MPS 3763
1999 01 08.29642 04 15 42.30 +29 46 42.1 17.6   704 – Lincoln Laboratory ETS, New Mexico MPS 3763
2000 02 02.39442 11 27 11.27 -02 08 05.8 18.7   704 – Lincoln Laboratory ETS, New Mexico MPS 10617
2000 02 02.41995 11 27 10.46 -02 08 07.1 18.7   704 – Lincoln Laboratory ETS, New Mexico MPS 10617
2000 02 02.44989 11 27 09.54 -02 08 06.1 19.0   704 – Lincoln Laboratory ETS, New Mexico MPS 10617
2000 02 02.46456 11 27 09.15 -02 08 06.5 19.3   704 – Lincoln Laboratory ETS, New Mexico MPS 10617
2000 02 02.47894 11 27 08.71 -02 08 05.4 19.9   704 – Lincoln Laboratory ETS, New Mexico MPS 10617
2000 02 07.40690 11 24 36.01 -02 05 01.7 18.9   704 – Lincoln Laboratory ETS, New Mexico MPS 10617
2000 02 07.43168 11 24 35.12 -02 05 00.4 19.0   704 – Lincoln Laboratory ETS, New Mexico MPS 10617
2000 02 07.48109 11 24 33.36 -02 04 57.5 19.8   704 – Lincoln Laboratory ETS, New Mexico MPS 10617
2000 02 07.50567 11 24 32.56 -02 04 56.0 19.0   704 – Lincoln Laboratory ETS, New Mexico MPS 10617
2000 02 08.40126 11 24 02.22 -02 03 59.4 18.5   704 – Lincoln Laboratory ETS, New Mexico MPS 10617
2000 02 08.41805 11 24 01.56 -02 03 59.1 19.0   704 – Lincoln Laboratory ETS, New Mexico MPS 10617
2000 02 08.43485 11 24 01.00 -02 03 58.9 19.4   704 – Lincoln Laboratory ETS, New Mexico MPS 10617
2000 02 08.45166 11 24 00.42 -02 03 56.1 19.5   704 – Lincoln Laboratory ETS, New Mexico MPS 10617
2000 02 08.46853 11 23 59.80 -02 03 54.5 19.2   704 – Lincoln Laboratory ETS, New Mexico MPS 10617
2000 03 08.33179 11 02 57.72 -00 49 19.6 18.3   704 – Lincoln Laboratory ETS, New Mexico MPS 11648
2000 03 08.34767 11 02 56.97 -00 49 16.0 19.0   704 – Lincoln Laboratory ETS, New Mexico MPS 11648
2000 03 08.36130 11 02 56.22 -00 49 12.5 19.1   704 – Lincoln Laboratory ETS, New Mexico MPS 11648
2000 03 08.37510 11 02 55.62 -00 49 08.7 19.0   704 – Lincoln Laboratory ETS, New Mexico MPS 11649
2000 03 08.38861 11 02 54.91 -00 49 05.2 18.7   704 – Lincoln Laboratory ETS, New Mexico MPS 11649
2000 04 02.23900 10 45 55.51 +00 41 22.1 18.0 R 699 – Lowell Observatory-LONEOS MPS 13349
2000 04 02.26276 10 45 54.79 +00 41 26.5   699 – Lowell Observatory-LONEOS MPS 13349
2000 04 02.28656 10 45 53.97 +00 41 31.7   699 – Lowell Observatory-LONEOS MPS 13349
2000 04 02.31027 10 45 53.21 +00 41 35.5   699 – Lowell Observatory-LONEOS MPS 13349
2000 04 04.24824 10 44 54.72 +00 47 44.1 18.4   704 – Lincoln Laboratory ETS, New Mexico MPS 13349
2000 04 04.26262 10 44 54.25 +00 47 46.1 18.3   704 – Lincoln Laboratory ETS, New Mexico MPS 13349
2000 04 04.27699 10 44 53.85 +00 47 49.2 18.5   704 – Lincoln Laboratory ETS, New Mexico MPS 13349
